Regional Weather Roundup
Issued by NWS Grand Forks, ND

Home | Current Version | Previous Version | Text Only | Print | Product List | Glossary Off
Versions: 1 2 3 4 5 6 7 8 9 10 11 12 13 14 15 16 17 18 19 20 21 22 23 24 25 26 27 28 29 30 31 32 33 34 35 36 37 38 39 40 41 42 43 44 45 46 47 48 49 50

000
ASUS43 KFGF 210831
RWRFGF
PRAIRIE TO PINES  WEATHER ROUNDUP
NATIONAL WEATHER SERVICE EASTERN NORTH DAKOTA/GRAND FORKS ND
300 AM CDT FRI JUL 21 2017

 **SATELLITE DATA USED TO AUGMENT SKY COVER AT AUTOMATED STATIONS**
 *****  WEATHER ACROSS EASTERN NORTH DAKOTA  *****

CITY           SKY/WX    TMP DP  RH WIND       PRES   REMARKS
GRAND FORKS    FAIR      71  65  81 SE7       29.86F
GRAND FRKS AFB MOCLDY    68  64  85 E6        29.86F
DEVILS LAKE    FAIR      77  66  68 S13G22    29.85S
FARGO          FAIR      76  68  76 SE8       29.87S
WAHPETON ARPT  FAIR      70  64  83 N7        29.90R
$$

 ***** WEATHER ACROSS CENTRAL AND WESTERN NORTH DAKOTA  *****

CITY           SKY/WX    TMP DP  RH WIND       PRES   REMARKS
BISMARCK       FAIR      72  62  71 S8        29.81F
MINOT          FAIR      68  62  81 SE5       29.79F
JAMESTOWN      FAIR      72  64  76 SE10      29.84F
MINOT AFB      FAIR      65  62  89 S7        29.78F
GARRISON         N/A     67  57  70 E8        29.80F
WILLISTON      FAIR      72  58  61 SE5       29.77F
DICKINSON      FAIR      68  62  81 S14       29.79F
HETTINGER      FAIR      65  60  84 W6        29.87R
$$

 *****  OTHER AIRPORT OBSERVATIONS IN OUR AREA  *****

CITY           SKY/WX    TMP DP  RH WIND       PRES   REMARKS
WALHALLA       NOT AVBL
GRAFTON AIRPOR FAIR      66  64  94 E8        29.88F
VALLEY CITY AR FAIR      73  72  94 SE8       29.86F
CANDO          NOT AVBL
CAVALIER APRT  FAIR      64  61  88 CALM      29.88S
GWINNER        SUNNY     72  68  88 SE8       29.83F
SHEYENNE NWR     N/A     70  69  96 SE7       29.95S
ROLLA            N/A     59  59 100 CALM      29.88S
 ***** THE ABOVE OBSERVATIONS ARE NON NWS ARE NOT QUALITY
       CONTROLLED AND MAY MIS-REPORT RAIN FOR SNOW...
$$

  *****  WEATHER ACROSS NORTHERN MINNESOTA  *****

CITY           SKY/WX    TMP DP  RH WIND       PRES   REMARKS
FLAG ISLAND    FAIR      66  59  77 CALM      29.92F HAZE
WARROAD        FAIR      64  61  88 SE7       29.93F
ROSEAU           N/A     64  59  82 NE7       29.92S THUNDER
HALLOCK        FAIR      68  61  77 E9        29.89S
THF RVR FALLS  FAIR      67  60  78 E6        29.93R
BAUDETTE       FAIR      61  55  81 E6        29.92F
WASKISH        FAIR      61  54  77 E5        29.94S
CROOKSTON      FAIR      70  63  78 SE6       29.89S
STEPHEN NDAWN    N/A     66  61  82 NE6         N/A
GREENBUSH NDAW   N/A     66  61  82 E3          N/A
$$
  *****  WEATHER ACROSS CENTRAL AND WEST MINNESOTA  *****

CITY           SKY/WX    TMP DP  RH WIND       PRES   REMARKS
FOSSTON        FAIR      66  57  72 SE5       29.92S
BEMIDJI        FAIR      65  60  85 SE3       29.94S
PARK RAPIDS      N/A     70  65  84 E5        29.94F
ELBOW LAKE     FAIR      69  68  97 E14       29.89F
WADENA         FAIR      66  66 100 CALM      29.95R
DETROIT LAKES  FAIR      72  64  78 S10       29.93F
MOORHEAD       FAIR      73  66  78 S9        29.88S
FERGUS FALLS   FAIR      73  70  88 SE6       29.90R
MORRIS MN      FAIR      70  68  94 SE7       29.92F
STAPLES        FAIR      68  66  94 CALM      29.95F
$$
  *****  WEATHER ELSEWHERE ACROSS MINNESOTA  *****

CITY           SKY/WX    TMP DP  RH WIND       PRES   REMARKS
DULUTH         FAIR      62  60  93 CALM      29.97S
INTRNTL FALLS  FAIR      52  50  93 CALM      29.95F
ELY            FAIR      55  54  94 CALM      29.98S
CLOQUET        FAIR      63  61  94 CALM      29.96F
WHEATON        FAIR      70  66  88 SE12      29.88F
BRAINERD       FAIR      64  63  96 CALM      29.96S FOG
HIBBING        FAIR      54  54 100 CALM      29.97S FOG
ALEXANDRIA     FAIR      69  67  93 SE6       29.96F
SAINT CLOUD    FAIR      63  63 100 CALM      29.98R FOG
MINNEAPOLIS    FAIR      70  66  87 NE5       29.98F
$$

  *****  WEATHER ACROSS SOUTH DAKOTA  *****

CITY           SKY/WX    TMP DP  RH WIND       PRES   REMARKS
SIOUX FALLS    FAIR      76  74  93 SE9       29.89F
BROOKINGS      FAIR      73  71  93 SE9       29.93F
WATERTOWN      FAIR      71  68  90 CALM      29.93F
HURON          FAIR      73  71  93 E7        29.88F
SISSETON         N/A     71  69  93 S14       29.85F
ABERDEEN       FAIR      73  62  68 W10G26    29.87F
MITCHELL       MOCLDY    74  72  93 NE8       29.87F
PIERRE         NOT AVBL
MOBRIDGE       LGT RAIN  71  65  81 SE15      29.82S
RAPID CITY     FAIR      66  63  90 N8        29.94F
$$

  *****  SOME WEATHER IN NEARBY STATES *****

CITY           SKY/WX    TMP DP  RH WIND       PRES   REMARKS
GLASGOW MT     FAIR      72  53  51 NE20G28   29.78R
GREAT FALLS MT FAIR      62  25  24 S7        29.97R
CHEYENNE WY    FAIR      64  55  72 W9        30.19R
SCOTTSBLUFF NE FAIR      72  56  57 W8        30.00F
OMAHA NE       CLOUDY    87  71  58 S12       29.88F HX  93
DES MOINES IA  CLOUDY    76  72  87 E6        29.93R
DAVENPORT IA   LGT RAIN  72  70  93 N7        29.97F
CHICAGO IL     CLOUDY    76  70  82 CALM      29.98S
EAU CLAIRE WI  FOG       62  61  96 CALM      29.98S VSB 3/4
LA CROSSE WI   FAIR      71  68  90 NE3       29.97F
$$

  *****  SOME NATIONAL WEATHER *****

CITY           SKY/WX    TMP DP  RH WIND       PRES   REMARKS
LA GUARDIA NY  MOCLDY    78  70  76 NW8       29.86F
RALEIGH NC     FAIR      76  72  87 SW6       29.98F
ATLANTA GA     FAIR      77  74  90 NW6       30.03S
NEW ORLEANS LA FAIR      78  76  93 CALM      30.00F
OKLAHOMA CITY  FAIR      80  68  66 S12       30.00F
ALBUQUERQUE NM FAIR      73  57  57 S13       30.23F
SALT LAKE CITY FAIR      85  51  31 S20G28    29.98S
LOS ANGELES CA FAIR      68  65  90 W6        29.95F
BOISE ID       FAIR      68  40  35 CALM      29.99R
SEATTLE WA     FAIR      61  53  75 CALM      30.14S
$$

*** WEATHER ACROSS MANITOBA...SASKATCHEWAN AND ONTARIO ***
                ***ONTARIO***

CITY           SKY/WX    TMP DP  RH WIND       PRES   REMARKS
GERALDTON      PTCLDY    55  50  82 VRB2      29.89F
THUNDER BAY    CLEAR     55  54  94 SW5       29.94R
SIOUX LOOKOUT  CLEAR     52  50  93 CALM      29.94R
TORONTO        CLEAR     70  64  83 S3        29.90S
BIG TROUT LK   CLEAR     41  41 100 NW3       29.93S
PICKLE LAKE    NOT AVBL
DRYDEN         CLEAR     59  54  82 SW6       29.95R
KENORA         CLOUDY    59  55  88 CALM      29.95S
$$
                *** MANITOBA***

CITY           SKY/WX    TMP DP  RH WIND       PRES   REMARKS
BRANDON        CLEAR     59  57  94 E9        29.87F
DAUPHIN        CLEAR     55  55 100 W3        29.91R
ISLAND LAKE    NOT AVBL
PILOT MOUND      N/A     63  59  88 E7          N/A
THE PAS        CLOUDY    59  45  58 E9        29.97R
THOMPSON       PTCLDY    36  34  93 CALM      29.98S
WINNIPEG       PTCLDY    61  57  88 E7        29.88F
LYNN LAKE      CLEAR     43  41  93 W2        29.99S
CHURCHILL      PTCLDY    46  41  81 W6        29.85S
GILLAM         PTCLDY    46  41  81 SW6       29.92S
$$
                ***SASKATCHEWAN***

CITY           SKY/WX    TMP DP  RH WIND       PRES   REMARKS
ESTEVAN        MOCLDY    64  61  88 E12       29.83R
KINDERSLEY     TSTM      63  57  82 VRB8G29   29.84R
LLOYDMINSTER   MOCLDY    61  55  82 SE9G18    29.80S
PRINCE ALBERT  CLOUDY    59  57  94 E7        29.87F
REGINA         CLOUDY    66  61  82 SE9       29.86R
YORKTON        CLOUDY    59  59 100 N8        29.92F
N. BATTLEFORD  PTCLDY    59  54  82 E7        29.80F
LA RONGE       MOCLDY    61  46  59 E7        29.94S
SASKATOON      LGT RAIN  63  57  82 SE14G20   29.79F
SWIFT CURRENT  MOCLDY    63  54  72 E6        29.81R
$$
NOTE: THESE ARE AUTOMATED STATIONS WITH LIMITED QUALITY CONTROL
      "FAIR" INDICATES FEW OR NO CLOUDS BELOW 12,000 FEET WITH NO
      SIGNIFICANT WEATHER AND/OR OBSTRUCTIONS TO VISIBILITY.
      SKY/WX - SKY CONDITION AND SIGNIFICANT WEATHER.
      TMP - AIR TEMPERATURE.    DP   - DEWPOINT TEMPERATURE.
      RH  - RELATIVE HUMIDITY.  PRES - PRESSURE.
      HX  - HEAT INDEX.         WCI  - WIND CHILL INDEX.
$




USA.gov is the U.S. government's official web portal to all federal, state and local government web resources and services.